Showing default

YAOGAN 25C, 40340

Orbit data source: Space-Track

YAOGAN 25C, 40340 is a payload satellite owned by PLA GAD (CN) in LEO that was launched on Wed, 10 Dec 2014 UTC via a CHANG ZHENG 4C launch vehicle from the Jiuquan Satellite Launch Center, China (JSC). Payload-class satellites include a variety of spacecraft equipped with specific instruments for various scientific and technological missions. These include communications satellites like Starlink; space stations such as the ISS; scientific satellites like the Hubble; Earth observation satellites from companies like Planet Labs, Umbra, and HawkEye 360; GPS; miniature CubeSats for education and research; and military/defense satellites.

Loading next visibility...
Identifier
40340, 2014-080C
Orbit
LEO
Country
Flag of CNCN / PRC
Related business
Manufacturer
CAST
Mission
Operational Defense Sigint
Bus & Motor
Unknown
Mass
~500 kg wet, ~500 kg dry
Launch date (UTC)
2014-12-10 (11 years ago)
Launch vehicle
CHANG ZHENG 4C
Launch site
Jiuquan Satellite Launch Center, China (JSC)
Object type
Payload
Rocket body
Debris
Shape & HBR
Box + 2 Pan, 0.5 m
Radar Cross Section
0.446 m², Large (>1 m²)

Expand to show TLE details & history
Last TLE update: 7 hours ago

TLE from 7 hours ago
0 YAOGAN 25C
1 40340U 14080C   26062.51328567 -.00000029  00000-0  70757-4 0  9999
2 40340  63.3850 223.5187 0357595   9.1066 351.6219 13.45339007551533
Epoch: 2026-03-03T12:19Z
TLE epoch observation values (Epoch: 2026-03-03T12:19:07.881Z)
Latitude
-0.00012°
Longitude
-122.55546°
Altitude
827.225 km
Speed
7.57 km/s
True Right ascension
14h 54m 04s
True Declination
0° 00' 00"
Sunlit
Object was in full shadow at epoch
Visualization orbit readout
Latitude
Unknown
Longitude
Unknown
Altitude
Unknown
Speed
Unknown
Apparent Right ascension
Unknown
Apparent Declination
Unknown
Sunlit
N/A
Visualization observer readout
Local Sidereal Time
22:57:59
Azimuth
Unknown
Elevation
Unknown
Doppler factor
Unknown
Orbital elements
Apogee altitude
1,355.281 km
Perigee altitude
821.29 km
Semi-major axis
7,466.423 km
Eccentricity
0.03576
Inclination
63.385°
RAAN
223.5187°
Arg. of periapsis
9.1066°
True anomaly
350.99728°
Mean anomaly
351.6219°
Eccentric anomaly
351.31243°
Mean motion
3.36414 °/min
Orbital period
107.01 mins
BSTAR
0.000070757
Loading maneuver chart data...
Computing Atmospheric mass density...
Loading historical data...
Loading historical data...
Loading historical data...
Loading historical data...
Loading historical data...
Loading historical data...
Loading historical data...

Documentation

Showing up to 5 results
|